COSMOS 1375 DEB

基本信息
目录编号:
16206
目录名称:
COSMOS 1375 DEB
国际标识:
1982-055H
轨道中心:
EARTH
物体状态:
在轨
发射日期:
1982-06-06 UTC
轨道信息
数据来源: 国际轨道数据
星历时间: 2026-09-12T00:03:16+0800
半长轴: 7363.335km
偏心率: 0.0021586
轨道倾角: 65.837°
近地点辐角: 329.464°
升交点赤经: 349.404°
平近点角: 137.245°
近地点: 969.303km
远地点: 1001.093km
周期: 104.802分钟
每日圈数: 13.740133
详细信息
发射场:
PKMTR
轨道高度:
LEO
数据来源:
AOE Integration Group
参考系:
TEME
时间系统:
UTC
历元类型:
SGP4
2D轨道图
3D轨道图
轨道高度分析图
轨道倾角分析图
轨道综合分析图
查看轨道综合分析图